Boulder City, NV

7:59 AM PDT on June 22, 2017 (GMT -0700)
Boulder City

Weather History for KBVU - March, 2014

Change the Weather History Date:

Monday, March 24, 2014

  Actual Average (KLAS) Record (KLAS)
Temperature  
Mean Temperature 65 °F -  
Max Temperature 80 °F 74 °F 89 °F (1940)
Min Temperature 50 °F 48 °F 34 °F (1957)
Growing Degree Days 15 (Base 50)    
Moisture  
Dew Point 15 °F    
Average Humidity 16    
Maximum Humidity 38    
Minimum Humidity 6    
Precipitation  
Precipitation 0.00 in - - ()
Sea Level Pressure  
Sea Level Pressure 30.07 in    
Wind  
Wind Speed 3 mph (NNE)    
Max Wind Speed 12 mph    
Max Gust Speed 13 mph    
Visibility 10 miles    
Events Thunderstorm    
Averages and records for this station are not official NWS values.
T = Trace of Precipitation, MM = Missing Value Source: NWS Daily Summary

Daily Weather History Graph

Daily Weather History Graph

Search for Another Location

Airport or City:

Trip Planner

Search our weather history database for the weather conditions in past years. The results will help you decide how hot, cold, wet, or windy it might be!

Date:

Astronomy

Mar. 24, 2014 Rise Set
Actual Time 6:37 AM PDT 6:54 PM PDT
Civil Twilight 6:11 AM PDT 7:20 PM PDT
Nautical Twilight 5:41 AM PDT 7:50 PM PDT
Astronomical Twilight 5:11 AM PDT 8:20 PM PDT
Moon 2:00 AM PDT (3/24) 12:34 PM PDT (3/24)
Length of Visible Light 13h 08m
Length of Day
12h 17m
Last Quarter, 42% of the Moon is Illuminated
Mar 24
Last Quarter
Mar 30
New
Apr 7
First Quarter
Apr 15
Full
Apr 22
Last Quarter

Hourly Weather History & Observations

Time (PDT) Temp. Dew Point Humidity Pressure Visibility Wind Dir Wind Speed Gust Speed Precip Events Conditions
12:15 AM 60.8 °F 21.2 °F 22% 30.06 in 10.0 mi Calm Calm - N/A   Clear
12:55 AM 59.0 °F 21.2 °F 23% 30.06 in 10.0 mi Calm Calm - N/A   Clear
1:15 AM 57.2 °F 23.0 °F 27% 30.06 in 10.0 mi Calm Calm - N/A   Clear
1:35 AM 55.4 °F 28.4 °F 36% 30.06 in 10.0 mi Calm Calm - N/A   Clear
1:55 AM 55.4 °F 26.6 °F 33% 30.06 in 10.0 mi NE 3.5 mph - N/A   Clear
2:15 AM 57.2 °F 26.6 °F 31% 30.06 in 10.0 mi NE 3.5 mph - N/A Thunderstorm Clear
2:35 AM 55.4 °F 28.4 °F 36% 30.06 in 10.0 mi Calm Calm - N/A   Clear
2:55 AM 53.6 °F 24.8 °F 33% 30.06 in 10.0 mi Calm Calm - N/A Thunderstorm Clear
3:15 AM 53.6 °F 24.8 °F 33% 30.06 in 10.0 mi Calm Calm - N/A   Clear
3:35 AM 53.6 °F 28.4 °F 38% 30.06 in 10.0 mi Calm Calm - N/A   Clear
3:55 AM 55.4 °F 23.0 °F 29% 30.06 in 10.0 mi NNE 4.6 mph - N/A   Clear
4:15 AM 55.4 °F 21.2 °F 26% 30.07 in 10.0 mi North 5.8 mph - N/A   Clear
4:35 AM 55.4 °F 21.2 °F 26% 30.07 in 10.0 mi Calm Calm - N/A   Clear
4:55 AM 57.2 °F 21.2 °F 25% 30.08 in 10.0 mi Variable 6.9 mph - N/A   Clear
5:15 AM 62.6 °F 17.6 °F 18% 30.08 in 10.0 mi Calm Calm 11.5 mph N/A   Clear
5:35 AM 59.0 °F 17.6 °F 20% 30.08 in 10.0 mi WSW 4.6 mph - N/A   Clear
5:55 AM 57.2 °F 15.8 °F 20% 30.09 in 10.0 mi Calm Calm - N/A   Clear
6:15 AM 53.6 °F 17.6 °F 24% 30.10 in 10.0 mi East 3.5 mph - N/A   Clear
6:35 AM 50.0 °F 23.0 °F 35% 30.11 in 10.0 mi Calm Calm - N/A   Clear
6:55 AM 51.8 °F 15.8 °F 24% 30.12 in 10.0 mi Calm Calm - N/A   Clear
7:15 AM 51.8 °F 15.8 °F 24% 30.13 in 10.0 mi Calm Calm - N/A   Clear
7:35 AM 51.8 °F 15.8 °F 24% 30.13 in 10.0 mi Calm Calm - N/A Thunderstorm Clear
7:55 AM 55.4 °F 15.8 °F 21% 30.14 in 10.0 mi Calm Calm - N/A   Clear
8:15 AM 59.0 °F 17.6 °F 20% 30.14 in 10.0 mi Calm Calm - N/A   Clear
8:35 AM 66.2 °F 14.0 °F 13% 30.14 in 10.0 mi NW 9.2 mph - N/A   Clear
8:55 AM 66.2 °F 14.0 °F 13% 30.15 in 10.0 mi NNW 10.4 mph - N/A   Clear
9:15 AM 68.0 °F 12.2 °F 12% 30.15 in 10.0 mi NNW 9.2 mph - N/A   Clear
9:35 AM 69.8 °F 12.2 °F 11% 30.15 in 10.0 mi NNW 10.4 mph - N/A   Clear
9:55 AM 71.6 °F 10.4 °F 9% 30.16 in 10.0 mi North 8.1 mph - N/A   Clear
10:15 AM 71.6 °F 10.4 °F 9% 30.16 in 10.0 mi NNW 6.9 mph - N/A   Clear
10:35 AM 71.6 °F 12.2 °F 10% 30.16 in 10.0 mi Variable 5.8 mph 11.5 mph N/A   Clear
10:55 AM 73.4 °F 12.2 °F 10% 30.15 in 10.0 mi NNW 9.2 mph - N/A   Clear
11:15 AM 73.4 °F 14.0 °F 10% 30.15 in 10.0 mi NE 6.9 mph - N/A   Clear
11:35 AM 75.2 °F 14.0 °F 10% 30.15 in 10.0 mi NE 6.9 mph - N/A   Clear
11:55 AM 75.2 °F 14.0 °F 10% 30.14 in 10.0 mi NNE 8.1 mph - N/A Thunderstorm Clear
12:15 PM 77.0 °F 14.0 °F 9% 30.13 in 10.0 mi NNE 9.2 mph - N/A Thunderstorm Clear
12:35 PM 77.0 °F 14.0 °F 9% 30.13 in 10.0 mi NE 11.5 mph - N/A   Clear
12:55 PM 77.0 °F 14.0 °F 9% 30.12 in 10.0 mi NE 9.2 mph - N/A   Clear
1:15 PM 77.0 °F 14.0 °F 9% 30.11 in 10.0 mi NNE 10.4 mph - N/A   Clear
1:35 PM 78.8 °F 14.0 °F 9% 30.10 in 10.0 mi NE 11.5 mph - N/A   Clear
1:55 PM 78.8 °F 14.0 °F 9% 30.09 in 10.0 mi NE 10.4 mph - N/A   Clear
2:15 PM 78.8 °F 14.0 °F 9% 30.08 in 10.0 mi NE 10.4 mph - N/A   Clear
2:35 PM 78.8 °F 12.2 °F 8% 30.07 in 10.0 mi Variable 5.8 mph 12.7 mph N/A   Clear
2:55 PM 78.8 °F 8.6 °F 7% 30.06 in 10.0 mi Calm Calm - N/A   Clear
3:15 PM 78.8 °F 8.6 °F 7% 30.06 in 10.0 mi Variable 6.9 mph - N/A   Clear
3:35 PM 80.6 °F 6.8 °F 6% 30.05 in 10.0 mi NNE 8.1 mph - N/A   Clear
3:55 PM 80.6 °F 6.8 °F 6% 30.04 in 10.0 mi NNE 9.2 mph - N/A   Clear
4:15 PM 80.6 °F 6.8 °F 6% 30.03 in 10.0 mi NE 10.4 mph - N/A   Clear
4:35 PM 78.8 °F 6.8 °F 6% 30.03 in 10.0 mi NE 4.6 mph - N/A   Clear
4:55 PM 80.6 °F 6.8 °F 6% 30.02 in 10.0 mi NNE 8.1 mph - N/A   Clear
5:15 PM 80.6 °F 6.8 °F 6% 30.02 in 10.0 mi Variable 3.5 mph 11.5 mph N/A   Clear
5:35 PM 78.8 °F 6.8 °F 6% 30.01 in 10.0 mi NE 5.8 mph - N/A   Clear
5:55 PM 78.8 °F 8.6 °F 7% 30.01 in 10.0 mi NE 4.6 mph - N/A   Clear
6:15 PM 78.8 °F 8.6 °F 7% 30.01 in 10.0 mi NNE 4.6 mph - N/A Thunderstorm Clear
6:35 PM 77.0 °F 10.4 °F 8% 30.00 in 10.0 mi NNE 5.8 mph - N/A   Clear
6:55 PM 73.4 °F 12.2 °F 10% 30.00 in 10.0 mi NNE 5.8 mph - N/A Thunderstorm Clear
7:15 PM 71.6 °F 10.4 °F 9% 30.00 in 10.0 mi North 6.9 mph - N/A   Clear
7:35 PM 69.8 °F 8.6 °F 9% 30.00 in 10.0 mi North 8.1 mph - N/A   Clear
7:55 PM 69.8 °F 8.6 °F 9% 30.00 in 10.0 mi North 8.1 mph - N/A   Clear
8:15 PM 68.0 °F 12.2 °F 12% 30.00 in 10.0 mi North - - N/A   Clear
8:35 PM 69.8 °F 6.8 °F 9% 30.00 in 10.0 mi North - - N/A   Clear
8:55 PM 66.2 °F 15.8 °F 14% 30.01 in 10.0 mi North 6.9 mph - N/A   Clear
9:15 PM 64.4 °F 14.0 °F 14% 30.01 in 10.0 mi North 5.8 mph - N/A   Clear
9:35 PM 64.4 °F 12.2 °F 13% 30.00 in 10.0 mi North 8.1 mph - N/A   Clear
9:55 PM 64.4 °F 10.4 °F 12% 30.00 in 10.0 mi North - - N/A   Clear
10:15 PM 62.6 °F 14.0 °F 15% 30.00 in 10.0 mi Calm Calm - N/A   Clear
10:55 PM 62.6 °F 6.8 °F 11% 30.00 in 10.0 mi Calm Calm - N/A   Clear
11:15 PM 60.8 °F 10.4 °F 14% 30.00 in 10.0 mi Calm Calm - N/A   Clear
11:35 PM 62.6 °F 10.4 °F 13% 30.00 in 10.0 mi Calm Calm - N/A   Clear
11:55 PM 64.4 °F 8.6 °F 11% 30.00 in 10.0 mi Calm Calm - N/A   Clear